M I D A S
Marine Information and Data Acquisition System
Tripno 1410 of the Zeeleeuw from 2007-11-08 08:43:16 to 2007-11-08 16:57:53
Back to CruiseResearch ActivitiesStationsMapUnderway DataData graphs

EquipmentUnitsComment
TimeDGPSUTC
LatitudeDGPSDM.mWGS84
LongitudeDGPSDM.mWGS84
TemperatureSBE03/SBE38deg celciusITS90
ConductivitySBE21S/mITS90
SalinitySBE21 Practical Salinity Units
ChlorophylAChelsea fluorimeterg/lCalibrated in Aceton
Missing or incorrect values are displayed as -999
Sea surface data collected by the RV Zeeleeuw from 2007-11-08 08:44:22 to 2007-11-08 17:07:23
Time Latitude Longitude Temperature Conductivity Salinity ChlorophylA
2007-11-08 08:45:27 51°13.676 2°55.883 -999 -999 -999 -999
2007-11-08 08:46:27 51°13.679 2°55.821 -999 -999 -999 -999
2007-11-08 08:47:27 51°13.675 2°55.775 -999 -999 -999 -999
2007-11-08 08:48:27 51°13.679 2°55.777 -999 -999 -999 -999
2007-11-08 08:49:27 51°13.677 2°55.769 -999 -999 -999 -999
2007-11-08 08:50:28 51°13.722 2°55.741 -999 -999 -999 -999
2007-11-08 08:51:27 51°13.826 2°55.65 -999 -999 -999 -999
2007-11-08 08:52:27 51°13.948 2°55.56 -999 -999 -999 -999
2007-11-08 08:53:27 51°14.074 2°55.474 -999 -999 -999 -999
2007-11-08 08:54:27 51°14.208 2°55.35 -999 -999 -999 -999
2007-11-08 08:55:26 51°14.331 2°55.136 -999 -999 -999 -999
2007-11-08 08:56:26 51°14.422 2°54.851 -999 -999 -999 -999
2007-11-08 08:57:25 51°14.502 2°54.556 -999 -999 -999 -999
2007-11-08 08:58:26 51°14.584 2°54.25 -999 -999 -999 -999
2007-11-08 08:59:28 51°14.666 2°53.938 -999 -999 -999 -999
2007-11-08 09:00:27 51°14.762 2°53.657 -999 -999 -999 -999
2007-11-08 09:01:26 51°14.864 2°53.385 -999 -999 -999 -999
2007-11-08 09:02:24 51°14.96 2°53.114 -999 -999 -999 -999
2007-11-08 09:03:24 51°15.059 2°52.831 -999 -999 -999 -999
2007-11-08 09:04:24 51°15.158 2°52.547 -999 -999 -999 -999
2007-11-08 09:05:24 51°15.258 2°52.266 -999 -999 -999 -999
2007-11-08 09:06:24 51°15.36 2°51.987 -999 -999 -999 -999
2007-11-08 09:07:24 51°15.458 2°51.706 -999 -999 -999 -999
2007-11-08 09:08:24 51°15.559 2°51.429 -999 -999 -999 -999
2007-11-08 09:09:24 51°15.662 2°51.154 -999 -999 -999 -999
2007-11-08 09:10:24 51°15.762 2°50.88 -999 -999 -999 -999
2007-11-08 09:11:24 51°15.864 2°50.608 -999 -999 -999 -999
2007-11-08 09:12:24 51°15.966 2°50.338 -999 -999 -999 -999
2007-11-08 09:13:24 51°16.066 2°50.071 -999 -999 -999 -999
2007-11-08 09:14:24 51°16.121 2°49.843 -999 -999 -999 -999
2007-11-08 09:15:24 51°16.111 2°49.727 -999 -999 -999 -999
2007-11-08 09:16:24 51°16.103 2°49.641 -999 -999 -999 -999
2007-11-08 09:17:24 51°16.097 2°49.532 -999 -999 -999 -999
2007-11-08 09:18:24 51°16.09 2°49.407 -999 -999 -999 -999
2007-11-08 09:19:24 51°16.084 2°49.267 -999 -999 -999 -999
2007-11-08 09:20:23 51°16.076 2°49.143 -999 -999 -999 -999
2007-11-08 09:21:24 51°16.068 2°49.025 -999 -999 -999 -999
2007-11-08 09:22:24 51°16.062 2°48.907 -999 -999 -999 -999
2007-11-08 09:23:24 51°16.058 2°48.787 -999 -999 -999 -999
2007-11-08 09:24:24 51°16.051 2°48.673 -999 -999 -999 -999
2007-11-08 09:25:24 51°16.047 2°48.557 -999 -999 -999 -999
2007-11-08 09:26:24 51°16.043 2°48.442 -999 -999 -999 -999
2007-11-08 09:27:24 51°16.037 2°48.326 -999 -999 -999 -999
2007-11-08 09:28:24 51°16.034 2°48.208 -999 -999 -999 -999
2007-11-08 09:29:24 51°16.033 2°48.087 -999 -999 -999 -999
2007-11-08 09:30:24 51°16.022 2°47.973 -999 -999 -999 -999
2007-11-08 09:31:24 51°16.008 2°47.859 -999 -999 -999 -999
2007-11-08 09:32:24 51°15.991 2°47.745 -999 -999 -999 -999
2007-11-08 09:33:24 51°15.97 2°47.628 -999 -999 -999 -999
2007-11-08 09:34:24 51°15.947 2°47.514 -999 -999 -999 -999
2007-11-08 09:35:24 51°15.923 2°47.401 -999 -999 -999 -999
2007-11-08 09:36:24 51°15.897 2°47.285 -999 -999 -999 -999
2007-11-08 09:37:24 51°15.861 2°47.178 -999 -999 -999 -999
2007-11-08 09:38:24 51°15.823 2°47.08 -999 -999 -999 -999
2007-11-08 09:39:24 51°15.788 2°46.977 -999 -999 -999 -999
2007-11-08 09:40:24 51°15.751 2°46.863 -999 -999 -999 -999
2007-11-08 09:41:24 51°15.713 2°46.746 -999 -999 -999 -999
2007-11-08 09:42:24 51°15.678 2°46.639 -999 -999 -999 -999
2007-11-08 09:43:24 51°15.641 2°46.52 -999 -999 -999 -999
2007-11-08 09:44:24 51°15.604 2°46.396 -999 -999 -999 -999
2007-11-08 09:45:24 51°15.575 2°46.291 -999 -999 -999 -999
2007-11-08 09:46:24 51°15.545 2°46.184 -999 -999 -999 -999
2007-11-08 09:47:24 51°15.513 2°46.077 -999 -999 -999 -999
2007-11-08 09:48:24 51°15.481 2°45.967 -999 -999 -999 -999
2007-11-08 09:49:24 51°15.451 2°45.864 -999 -999 -999 -999
2007-11-08 09:50:24 51°15.42 2°45.759 -999 -999 -999 -999
2007-11-08 09:51:24 51°15.389 2°45.651 -999 -999 -999 -999
2007-11-08 09:52:23 51°15.358 2°45.547 -999 -999 -999 -999
2007-11-08 09:53:24 51°15.327 2°45.442 -999 -999 -999 -999
2007-11-08 09:54:24 51°15.296 2°45.339 -999 -999 -999 -999
2007-11-08 09:55:24 51°15.268 2°45.233 -999 -999 -999 -999
2007-11-08 09:56:24 51°15.237 2°45.129 -999 -999 -999 -999
2007-11-08 09:57:24 51°15.206 2°45.012 -999 -999 -999 -999
2007-11-08 09:58:24 51°15.171 2°44.897 -999 -999 -999 -999
2007-11-08 09:59:24 51°15.136 2°44.787 -999 -999 -999 -999
2007-11-08 10:00:24 51°15.105 2°44.68 -999 -999 -999 -999
2007-11-08 10:01:24 51°15.074 2°44.568 -999 -999 -999 -999
2007-11-08 10:02:24 51°15.042 2°44.453 -999 -999 -999 -999
2007-11-08 10:03:24 51°15.012 2°44.34 -999 -999 -999 -999
2007-11-08 10:04:24 51°14.981 2°44.226 -999 -999 -999 -999
2007-11-08 10:05:24 51°14.949 2°44.113 -999 -999 -999 -999
2007-11-08 10:06:24 51°14.918 2°44.001 -999 -999 -999 -999
2007-11-08 10:07:24 51°14.888 2°43.89 -999 -999 -999 -999
2007-11-08 10:08:24 51°14.858 2°43.777 -999 -999 -999 -999
2007-11-08 10:09:24 51°14.829 2°43.663 -999 -999 -999 -999
2007-11-08 10:10:24 51°14.8 2°43.552 -999 -999 -999 -999
2007-11-08 10:11:24 51°14.771 2°43.441 -999 -999 -999 -999
2007-11-08 10:12:24 51°14.744 2°43.334 -999 -999 -999 -999
2007-11-08 10:13:24 51°14.716 2°43.231 -999 -999 -999 -999
2007-11-08 10:14:24 51°14.69 2°43.122 -999 -999 -999 -999
2007-11-08 10:15:24 51°14.664 2°43.011 -999 -999 -999 -999
2007-11-08 10:16:24 51°14.647 2°42.898 -999 -999 -999 -999
2007-11-08 10:17:24 51°14.638 2°42.786 -999 -999 -999 -999
2007-11-08 10:18:24 51°14.628 2°42.679 -999 -999 -999 -999
2007-11-08 10:19:24 51°14.62 2°42.567 -999 -999 -999 -999
2007-11-08 10:20:24 51°14.61 2°42.458 -999 -999 -999 -999
2007-11-08 10:21:24 51°14.601 2°42.351 -999 -999 -999 -999
2007-11-08 10:22:24 51°14.593 2°42.241 -999 -999 -999 -999
2007-11-08 10:23:24 51°14.583 2°42.126 -999 -999 -999 -999
2007-11-08 10:24:24 51°14.57 2°42 -999 -999 -999 -999
2007-11-08 10:25:24 51°14.557 2°41.87 -999 -999 -999 -999
2007-11-08 10:26:24 51°14.543 2°41.742 -999 -999 -999 -999
2007-11-08 10:27:24 51°14.528 2°41.615 -999 -999 -999 -999
2007-11-08 10:28:24 51°14.513 2°41.488 -999 -999 -999 -999
2007-11-08 10:29:24 51°14.499 2°41.359 -999 -999 -999 -999
2007-11-08 10:30:24 51°14.486 2°41.232 -999 -999 -999 -999
2007-11-08 10:31:24 51°14.47 2°41.104 -999 -999 -999 -999
2007-11-08 10:32:24 51°14.454 2°40.978 -999 -999 -999 -999
2007-11-08 10:33:24 51°14.439 2°40.85 -999 -999 -999 -999
2007-11-08 10:34:24 51°14.421 2°40.719 -999 -999 -999 -999
2007-11-08 10:35:24 51°14.412 2°40.587 -999 -999 -999 -999
2007-11-08 10:36:24 51°14.407 2°40.452 -999 -999 -999 -999
2007-11-08 10:37:24 51°14.401 2°40.319 -999 -999 -999 -999
2007-11-08 10:38:24 51°14.395 2°40.187 -999 -999 -999 -999
2007-11-08 10:39:24 51°14.389 2°40.058 -999 -999 -999 -999
2007-11-08 10:40:24 51°14.383 2°39.929 -999 -999 -999 -999
2007-11-08 10:41:24 51°14.377 2°39.797 -999 -999 -999 -999
2007-11-08 10:42:24 51°14.372 2°39.663 -999 -999 -999 -999
2007-11-08 10:43:24 51°14.368 2°39.532 -999 -999 -999 -999
2007-11-08 10:44:24 51°14.363 2°39.404 -999 -999 -999 -999
2007-11-08 10:45:24 51°14.358 2°39.276 -999 -999 -999 -999
2007-11-08 10:46:24 51°14.354 2°39.148 -999 -999 -999 -999
2007-11-08 10:47:24 51°14.351 2°39.02 -999 -999 -999 -999
2007-11-08 10:48:24 51°14.346 2°38.894 -999 -999 -999 -999
2007-11-08 10:49:24 51°14.345 2°38.765 -999 -999 -999 -999
2007-11-08 10:50:24 51°14.341 2°38.635 -999 -999 -999 -999
2007-11-08 10:51:24 51°14.339 2°38.507 -999 -999 -999 -999
2007-11-08 10:52:24 51°14.337 2°38.376 -999 -999 -999 -999
2007-11-08 10:53:24 51°14.331 2°38.249 -999 -999 -999 -999
2007-11-08 10:54:24 51°14.291 2°38.145 -999 -999 -999 -999
2007-11-08 10:55:24 51°14.251 2°38.041 -999 -999 -999 -999
2007-11-08 10:56:24 51°14.219 2°37.93 -999 -999 -999 -999
2007-11-08 10:57:24 51°14.188 2°37.818 -999 -999 -999 -999
2007-11-08 10:58:24 51°14.156 2°37.71 -999 -999 -999 -999
2007-11-08 10:59:24 51°14.125 2°37.599 -999 -999 -999 -999
2007-11-08 11:00:24 51°14.093 2°37.484 -999 -999 -999 -999
2007-11-08 11:01:24 51°14.061 2°37.367 -999 -999 -999 -999
2007-11-08 11:02:24 51°14.027 2°37.248 -999 -999 -999 -999
2007-11-08 11:03:24 51°13.992 2°37.128 -999 -999 -999 -999
2007-11-08 11:04:24 51°13.961 2°37.011 -999 -999 -999 -999
2007-11-08 11:05:24 51°13.929 2°36.897 -999 -999 -999 -999
2007-11-08 11:06:24 51°13.898 2°36.786 -999 -999 -999 -999
2007-11-08 11:07:24 51°13.867 2°36.675 -999 -999 -999 -999
2007-11-08 11:08:24 51°13.837 2°36.562 -999 -999 -999 -999
2007-11-08 11:09:24 51°13.806 2°36.451 -999 -999 -999 -999
2007-11-08 11:10:24 51°13.774 2°36.338 -999 -999 -999 -999
2007-11-08 11:11:24 51°13.742 2°36.223 -999 -999 -999 -999
2007-11-08 11:12:24 51°13.711 2°36.108 -999 -999 -999 -999
2007-11-08 11:13:24 51°13.68 2°35.991 -999 -999 -999 -999
2007-11-08 11:14:24 51°13.649 2°35.874 -999 -999 -999 -999
2007-11-08 11:15:24 51°13.614 2°35.759 -999 -999 -999 -999
2007-11-08 11:16:24 51°13.578 2°35.645 -999 -999 -999 -999
2007-11-08 11:17:24 51°13.542 2°35.533 -999 -999 -999 -999
2007-11-08 11:18:24 51°13.508 2°35.422 -999 -999 -999 -999
2007-11-08 11:19:24 51°13.473 2°35.31 -999 -999 -999 -999
2007-11-08 11:20:24 51°13.438 2°35.2 -999 -999 -999 -999
2007-11-08 11:21:24 51°13.404 2°35.088 -999 -999 -999 -999
2007-11-08 11:22:24 51°13.369 2°34.973 -999 -999 -999 -999
2007-11-08 11:23:24 51°13.333 2°34.856 -999 -999 -999 -999
2007-11-08 11:24:24 51°13.301 2°34.738 -999 -999 -999 -999
2007-11-08 11:25:24 51°13.265 2°34.621 -999 -999 -999 -999
2007-11-08 11:26:24 51°13.233 2°34.507 -999 -999 -999 -999
2007-11-08 11:27:24 51°13.2 2°34.392 -999 -999 -999 -999
2007-11-08 11:28:24 51°13.168 2°34.275 -999 -999 -999 -999
2007-11-08 11:29:24 51°13.135 2°34.16 -999 -999 -999 -999
2007-11-08 11:30:24 51°13.105 2°34.044 -999 -999 -999 -999
2007-11-08 11:31:24 51°13.117 2°33.917 -999 -999 -999 -999
2007-11-08 11:32:24 51°13.172 2°33.824 -999 -999 -999 -999
2007-11-08 11:33:24 51°13.228 2°33.745 -999 -999 -999 -999
2007-11-08 11:34:24 51°13.282 2°33.66 -999 -999 -999 -999
2007-11-08 11:35:24 51°13.335 2°33.574 -999 -999 -999 -999
2007-11-08 11:36:24 51°13.407 2°33.491 -999 -999 -999 -999
2007-11-08 11:37:24 51°13.496 2°33.461 -999 -999 -999 -999
2007-11-08 11:38:24 51°13.584 2°33.466 -999 -999 -999 -999
2007-11-08 11:39:24 51°13.672 2°33.486 -999 -999 -999 -999
2007-11-08 11:40:24 51°13.761 2°33.504 -999 -999 -999 -999
2007-11-08 11:41:24 51°13.849 2°33.523 -999 -999 -999 -999
2007-11-08 11:42:24 51°13.936 2°33.545 -999 -999 -999 -999
2007-11-08 11:43:24 51°14.024 2°33.557 -999 -999 -999 -999
2007-11-08 11:44:24 51°14.112 2°33.574 -999 -999 -999 -999
2007-11-08 11:45:24 51°14.2 2°33.593 -999 -999 -999 -999
2007-11-08 11:46:24 51°14.286 2°33.615 -999 -999 -999 -999
2007-11-08 11:47:24 51°14.371 2°33.657 -999 -999 -999 -999
2007-11-08 11:48:24 51°14.447 2°33.717 -999 -999 -999 -999
2007-11-08 11:49:24 51°14.518 2°33.775 -999 -999 -999 -999
2007-11-08 11:50:24 51°14.587 2°33.833 -999 -999 -999 -999
2007-11-08 11:51:24 51°14.656 2°33.888 -999 -999 -999 -999
2007-11-08 11:52:24 51°14.728 2°33.949 -999 -999 -999 -999
2007-11-08 11:53:24 51°14.803 2°34.009 -999 -999 -999 -999
2007-11-08 11:54:24 51°14.88 2°34.074 -999 -999 -999 -999
2007-11-08 11:55:24 51°14.958 2°34.134 -999 -999 -999 -999
2007-11-08 11:56:24 51°15.032 2°34.196 -999 -999 -999 -999
2007-11-08 11:57:24 51°15.104 2°34.253 -999 -999 -999 -999
2007-11-08 11:58:24 51°15.176 2°34.321 -999 -999 -999 -999
2007-11-08 11:59:24 51°15.25 2°34.394 -999 -999 -999 -999
2007-11-08 12:00:24 51°15.323 2°34.464 -999 -999 -999 -999
2007-11-08 12:01:24 51°15.391 2°34.53 -999 -999 -999 -999
2007-11-08 12:02:24 51°15.459 2°34.59 -999 -999 -999 -999
2007-11-08 12:03:24 51°15.525 2°34.655 -999 -999 -999 -999
2007-11-08 12:04:24 51°15.593 2°34.721 -999 -999 -999 -999
2007-11-08 12:05:24 51°15.659 2°34.788 -999 -999 -999 -999
2007-11-08 12:06:24 51°15.724 2°34.856 -999 -999 -999 -999
2007-11-08 12:07:24 51°15.789 2°34.923 -999 -999 -999 -999
2007-11-08 12:08:24 51°15.854 2°34.988 -999 -999 -999 -999
2007-11-08 12:09:24 51°15.92 2°35.059 -999 -999 -999 -999
2007-11-08 12:10:24 51°15.985 2°35.134 -999 -999 -999 -999
2007-11-08 12:11:24 51°16.052 2°35.207 -999 -999 -999 -999
2007-11-08 12:12:24 51°16.119 2°35.281 -999 -999 -999 -999
2007-11-08 12:13:24 51°16.182 2°35.355 -999 -999 -999 -999
2007-11-08 12:14:24 51°16.247 2°35.43 -999 -999 -999 -999
2007-11-08 12:15:24 51°16.311 2°35.506 -999 -999 -999 -999
2007-11-08 12:16:24 51°16.377 2°35.586 -999 -999 -999 -999
2007-11-08 12:17:24 51°16.441 2°35.666 -999 -999 -999 -999
2007-11-08 12:18:24 51°16.506 2°35.743 -999 -999 -999 -999
2007-11-08 12:19:24 51°16.571 2°35.82 -999 -999 -999 -999
2007-11-08 12:20:24 51°16.636 2°35.896 -999 -999 -999 -999
2007-11-08 12:21:24 51°16.7 2°35.972 -999 -999 -999 -999
2007-11-08 12:22:24 51°16.764 2°36.048 -999 -999 -999 -999
2007-11-08 12:23:24 51°16.829 2°36.121 -999 -999 -999 -999
2007-11-08 12:24:24 51°16.892 2°36.195 -999 -999 -999 -999
2007-11-08 12:25:24 51°16.956 2°36.272 -999 -999 -999 -999
2007-11-08 12:26:24 51°17.019 2°36.352 -999 -999 -999 -999
2007-11-08 12:27:24 51°17.083 2°36.431 -999 -999 -999 -999
2007-11-08 12:28:24 51°17.148 2°36.51 -999 -999 -999 -999
2007-11-08 12:29:24 51°17.215 2°36.59 -999 -999 -999 -999
2007-11-08 12:30:24 51°17.282 2°36.67 -999 -999 -999 -999
2007-11-08 12:31:24 51°17.349 2°36.751 -999 -999 -999 -999
2007-11-08 12:32:24 51°17.414 2°36.831 -999 -999 -999 -999
2007-11-08 12:33:24 51°17.469 2°36.929 -999 -999 -999 -999
2007-11-08 12:34:24 51°17.502 2°37.046 -999 -999 -999 -999
2007-11-08 12:35:24 51°17.498 2°37.169 -999 -999 -999 -999
2007-11-08 12:36:24 51°17.448 2°37.259 -999 -999 -999 -999
2007-11-08 12:37:24 51°17.372 2°37.251 -999 -999 -999 -999
2007-11-08 12:38:24 51°17.315 2°37.161 -999 -999 -999 -999
2007-11-08 12:39:24 51°17.252 2°37.056 -999 -999 -999 -999
2007-11-08 12:40:24 51°17.199 2°36.957 -999 -999 -999 -999
2007-11-08 12:41:24 51°17.146 2°36.865 -999 -999 -999 -999
2007-11-08 12:42:24 51°17.091 2°36.773 -999 -999 -999 -999
2007-11-08 12:43:24 51°17.031 2°36.683 -999 -999 -999 -999
2007-11-08 12:44:24 51°16.974 2°36.602 -999 -999 -999 -999
2007-11-08 12:45:24 51°16.914 2°36.511 -999 -999 -999 -999
2007-11-08 12:46:24 51°16.855 2°36.419 -999 -999 -999 -999
2007-11-08 12:47:24 51°16.798 2°36.331 -999 -999 -999 -999
2007-11-08 12:48:24 51°16.741 2°36.249 -999 -999 -999 -999
2007-11-08 12:49:24 51°16.683 2°36.164 -999 -999 -999 -999
2007-11-08 12:50:24 51°16.627 2°36.077 -999 -999 -999 -999
2007-11-08 12:51:24 51°16.569 2°35.992 -999 -999 -999 -999
2007-11-08 12:52:24 51°16.512 2°35.907 -999 -999 -999 -999
2007-11-08 12:53:24 51°16.456 2°35.827 -999 -999 -999 -999
2007-11-08 12:54:24 51°16.39 2°35.757 -999 -999 -999 -999
2007-11-08 12:55:24 51°16.326 2°35.689 -999 -999 -999 -999
2007-11-08 12:56:24 51°16.261 2°35.617 -999 -999 -999 -999
2007-11-08 12:57:24 51°16.2 2°35.548 -999 -999 -999 -999
2007-11-08 12:58:24 51°16.135 2°35.481 -999 -999 -999 -999
2007-11-08 12:59:24 51°16.073 2°35.413 -999 -999 -999 -999
2007-11-08 13:00:24 51°16.009 2°35.342 -999 -999 -999 -999
2007-11-08 13:01:24 51°15.942 2°35.257 -999 -999 -999 -999
2007-11-08 13:02:24 51°15.875 2°35.173 -999 -999 -999 -999
2007-11-08 13:03:24 51°15.807 2°35.091 -999 -999 -999 -999
2007-11-08 13:04:24 51°15.74 2°35.01 -999 -999 -999 -999
2007-11-08 13:05:24 51°15.672 2°34.938 -999 -999 -999 -999
2007-11-08 13:06:24 51°15.602 2°34.872 -999 -999 -999 -999
2007-11-08 13:07:24 51°15.534 2°34.809 -999 -999 -999 -999
2007-11-08 13:08:24 51°15.466 2°34.743 -999 -999 -999 -999
2007-11-08 13:09:24 51°15.399 2°34.686 -999 -999 -999 -999
2007-11-08 13:10:24 51°15.335 2°34.63 -999 -999 -999 -999
2007-11-08 13:11:24 51°15.268 2°34.572 -999 -999 -999 -999
2007-11-08 13:12:24 51°15.199 2°34.513 -999 -999 -999 -999
2007-11-08 13:13:24 51°15.128 2°34.459 -999 -999 -999 -999
2007-11-08 13:14:24 51°15.064 2°34.397 -999 -999 -999 -999
2007-11-08 13:15:24 51°14.996 2°34.336 -999 -999 -999 -999
2007-11-08 13:16:24 51°14.926 2°34.279 -999 -999 -999 -999
2007-11-08 13:17:24 51°14.856 2°34.216 -999 -999 -999 -999
2007-11-08 13:18:24 51°14.782 2°34.16 -999 -999 -999 -999
2007-11-08 13:19:24 51°14.701 2°34.134 -999 -999 -999 -999
2007-11-08 13:20:24 51°14.619 2°34.105 -999 -999 -999 -999
2007-11-08 13:21:24 51°14.537 2°34.078 -999 -999 -999 -999
2007-11-08 13:22:24 51°14.459 2°34.053 -999 -999 -999 -999
2007-11-08 13:23:24 51°14.382 2°34.028 -999 -999 -999 -999
2007-11-08 13:24:24 51°14.301 2°34.001 -999 -999 -999 -999
2007-11-08 13:25:24 51°14.222 2°33.974 -999 -999 -999 -999
2007-11-08 13:26:24 51°14.144 2°33.95 -999 -999 -999 -999
2007-11-08 13:27:24 51°14.066 2°33.925 -999 -999 -999 -999
2007-11-08 13:28:24 51°13.991 2°33.901 -999 -999 -999 -999
2007-11-08 13:29:24 51°13.914 2°33.874 -999 -999 -999 -999
2007-11-08 13:30:24 51°13.837 2°33.849 -999 -999 -999 -999
2007-11-08 13:31:24 51°13.76 2°33.823 -999 -999 -999 -999
2007-11-08 13:32:24 51°13.683 2°33.8 -999 -999 -999 -999
2007-11-08 13:33:24 51°13.609 2°33.768 -999 -999 -999 -999
2007-11-08 13:34:24 51°13.533 2°33.736 -999 -999 -999 -999
2007-11-08 13:35:24 51°13.457 2°33.704 -999 -999 -999 -999
2007-11-08 13:36:24 51°13.377 2°33.671 -999 -999 -999 -999
2007-11-08 13:37:24 51°13.293 2°33.667 -999 -999 -999 -999
2007-11-08 13:38:24 51°13.205 2°33.668 -999 -999 -999 -999
2007-11-08 13:39:24 51°13.118 2°33.663 -999 -999 -999 -999
2007-11-08 13:40:24 51°13.03 2°33.657 -999 -999 -999 -999
2007-11-08 13:41:24 51°12.939 2°33.654 -999 -999 -999 -999
2007-11-08 13:42:24 51°12.851 2°33.654 -999 -999 -999 -999
2007-11-08 13:43:24 51°12.765 2°33.664 -999 -999 -999 -999
2007-11-08 13:44:24 51°12.676 2°33.703 -999 -999 -999 -999
2007-11-08 13:45:24 51°12.594 2°33.805 -999 -999 -999 -999
2007-11-08 13:46:24 51°12.558 2°33.944 -999 -999 -999 -999
2007-11-08 13:47:24 51°12.562 2°34.087 -999 -999 -999 -999
2007-11-08 13:48:24 51°12.589 2°34.225 -999 -999 -999 -999
2007-11-08 13:49:24 51°12.639 2°34.343 -999 -999 -999 -999
2007-11-08 13:50:24 51°12.698 2°34.44 -999 -999 -999 -999
2007-11-08 13:51:24 51°12.76 2°34.528 -999 -999 -999 -999
2007-11-08 13:52:24 51°12.823 2°34.614 -999 -999 -999 -999
2007-11-08 13:53:24 51°12.88 2°34.704 -999 -999 -999 -999
2007-11-08 13:54:24 51°12.935 2°34.798 -999 -999 -999 -999
2007-11-08 13:55:24 51°12.991 2°34.89 -999 -999 -999 -999
2007-11-08 13:56:24 51°13.048 2°34.985 -999 -999 -999 -999
2007-11-08 13:57:24 51°13.105 2°35.081 -999 -999 -999 -999
2007-11-08 13:58:24 51°13.16 2°35.174 -999 -999 -999 -999
2007-11-08 13:59:24 51°13.206 2°35.278 -999 -999 -999 -999
2007-11-08 14:00:24 51°13.244 2°35.39 -999 -999 -999 -999
2007-11-08 14:01:24 51°13.282 2°35.501 -999 -999 -999 -999
2007-11-08 14:02:24 51°13.326 2°35.611 -999 -999 -999 -999
2007-11-08 14:03:24 51°13.374 2°35.717 -999 -999 -999 -999
2007-11-08 14:04:24 51°13.422 2°35.821 -999 -999 -999 -999
2007-11-08 14:05:24 51°13.459 2°35.932 -999 -999 -999 -999
2007-11-08 14:06:24 51°13.492 2°36.045 -999 -999 -999 -999
2007-11-08 14:07:24 51°13.532 2°36.151 -999 -999 -999 -999
2007-11-08 14:08:24 51°13.576 2°36.255 -999 -999 -999 -999
2007-11-08 14:09:24 51°13.621 2°36.363 -999 -999 -999 -999
2007-11-08 14:10:24 51°13.661 2°36.472 -999 -999 -999 -999
2007-11-08 14:11:24 51°13.698 2°36.584 -999 -999 -999 -999
2007-11-08 14:12:24 51°13.731 2°36.696 -999 -999 -999 -999
2007-11-08 14:13:24 51°13.761 2°36.804 -999 -999 -999 -999
2007-11-08 14:14:24 51°13.797 2°36.912 -999 -999 -999 -999
2007-11-08 14:15:24 51°13.836 2°37.021 -999 -999 -999 -999
2007-11-08 14:16:24 51°13.875 2°37.129 -999 -999 -999 -999
2007-11-08 14:17:24 51°13.913 2°37.233 -999 -999 -999 -999
2007-11-08 14:18:24 51°13.949 2°37.337 -999 -999 -999 -999
2007-11-08 14:19:24 51°13.984 2°37.443 -999 -999 -999 -999
2007-11-08 14:20:24 51°14.02 2°37.552 -999 -999 -999 -999
2007-11-08 14:21:24 51°14.058 2°37.662 -999 -999 -999 -999
2007-11-08 14:22:24 51°14.098 2°37.773 -999 -999 -999 -999
2007-11-08 14:23:24 51°14.138 2°37.882 -999 -999 -999 -999
2007-11-08 14:24:24 51°14.174 2°37.99 -999 -999 -999 -999
2007-11-08 14:25:24 51°14.197 2°38.107 -999 -999 -999 -999
2007-11-08 14:26:24 51°14.218 2°38.224 -999 -999 -999 -999
2007-11-08 14:27:24 51°14.243 2°38.348 -999 -999 -999 -999
2007-11-08 14:28:24 51°14.269 2°38.476 -999 -999 -999 -999
2007-11-08 14:29:24 51°14.297 2°38.608 -999 -999 -999 -999
2007-11-08 14:30:24 51°14.328 2°38.737 -999 -999 -999 -999
2007-11-08 14:31:24 51°14.349 2°38.867 -999 -999 -999 -999
2007-11-08 14:32:24 51°14.352 2°38.996 -999 -999 -999 -999
2007-11-08 14:33:24 51°14.343 2°39.12 -999 -999 -999 -999
2007-11-08 14:34:24 51°14.337 2°39.243 -999 -999 -999 -999
2007-11-08 14:35:24 51°14.328 2°39.366 -999 -999 -999 -999
2007-11-08 14:36:24 51°14.299 2°39.474 -999 -999 -999 -999
2007-11-08 14:37:24 51°14.225 2°39.559 -999 -999 -999 -999
2007-11-08 14:38:24 51°14.137 2°39.565 -999 -999 -999 -999
2007-11-08 14:39:24 51°14.069 2°39.5 -999 -999 -999 -999
2007-11-08 14:40:24 51°14.01 2°39.419 -999 -999 -999 -999
2007-11-08 14:41:24 51°13.943 2°39.342 -999 -999 -999 -999
2007-11-08 14:42:24 51°13.87 2°39.261 -999 -999 -999 -999
2007-11-08 14:43:24 51°13.806 2°39.196 -999 -999 -999 -999
2007-11-08 14:44:24 51°13.74 2°39.134 -999 -999 -999 -999
2007-11-08 14:45:24 51°13.67 2°39.063 -999 -999 -999 -999
2007-11-08 14:46:24 51°13.599 2°38.996 -999 -999 -999 -999
2007-11-08 14:47:24 51°13.525 2°38.924 -999 -999 -999 -999
2007-11-08 14:48:24 51°13.45 2°38.862 -999 -999 -999 -999
2007-11-08 14:49:24 51°13.378 2°38.795 -999 -999 -999 -999
2007-11-08 14:50:24 51°13.304 2°38.726 -999 -999 -999 -999
2007-11-08 14:51:24 51°13.236 2°38.662 -999 -999 -999 -999
2007-11-08 14:52:24 51°13.164 2°38.596 -999 -999 -999 -999
2007-11-08 14:53:24 51°13.096 2°38.528 -999 -999 -999 -999
2007-11-08 14:54:24 51°13.024 2°38.461 -999 -999 -999 -999
2007-11-08 14:55:24 51°12.953 2°38.393 -999 -999 -999 -999
2007-11-08 14:56:24 51°12.88 2°38.324 -999 -999 -999 -999
2007-11-08 14:57:24 51°12.805 2°38.251 -999 -999 -999 -999
2007-11-08 14:58:24 51°12.727 2°38.191 -999 -999 -999 -999
2007-11-08 14:59:24 51°12.651 2°38.126 -999 -999 -999 -999
2007-11-08 15:00:24 51°12.568 2°38.081 -999 -999 -999 -999
2007-11-08 15:01:24 51°12.483 2°38.043 -999 -999 -999 -999
2007-11-08 15:02:24 51°12.399 2°38.006 -999 -999 -999 -999
2007-11-08 15:03:24 51°12.315 2°37.964 -999 -999 -999 -999
2007-11-08 15:04:24 51°12.231 2°37.928 -999 -999 -999 -999
2007-11-08 15:05:24 51°12.153 2°37.883 -999 -999 -999 -999
2007-11-08 15:06:24 51°12.074 2°37.833 -999 -999 -999 -999
2007-11-08 15:07:24 51°11.997 2°37.787 -999 -999 -999 -999
2007-11-08 15:08:24 51°11.921 2°37.739 -999 -999 -999 -999
2007-11-08 15:09:24 51°11.845 2°37.689 -999 -999 -999 -999
2007-11-08 15:10:24 51°11.766 2°37.631 -999 -999 -999 -999
2007-11-08 15:11:24 51°11.688 2°37.571 -999 -999 -999 -999
2007-11-08 15:12:24 51°11.611 2°37.511 -999 -999 -999 -999
2007-11-08 15:13:24 51°11.537 2°37.453 -999 -999 -999 -999
2007-11-08 15:14:24 51°11.467 2°37.388 -999 -999 -999 -999
2007-11-08 15:15:24 51°11.397 2°37.318 -999 -999 -999 -999
2007-11-08 15:16:24 51°11.326 2°37.247 -999 -999 -999 -999
2007-11-08 15:17:24 51°11.252 2°37.171 -999 -999 -999 -999
2007-11-08 15:18:24 51°11.177 2°37.098 -999 -999 -999 -999
2007-11-08 15:19:24 51°11.104 2°37.032 -999 -999 -999 -999
2007-11-08 15:20:24 51°11.024 2°36.983 -999 -999 -999 -999
2007-11-08 15:21:24 51°10.931 2°36.97 -999 -999 -999 -999
2007-11-08 15:22:24 51°10.844 2°36.962 -999 -999 -999 -999
2007-11-08 15:23:24 51°10.762 2°36.955 -999 -999 -999 -999
2007-11-08 15:24:24 51°10.658 2°36.933 -999 -999 -999 -999
2007-11-08 15:25:24 51°10.539 2°36.913 -999 -999 -999 -999
2007-11-08 15:26:24 51°10.417 2°36.973 -999 -999 -999 -999
2007-11-08 15:27:24 51°10.319 2°37.118 -999 -999 -999 -999
2007-11-08 15:28:24 51°10.285 2°37.29 -999 -999 -999 -999
2007-11-08 15:29:24 51°10.278 2°37.428 -999 -999 -999 -999
2007-11-08 15:30:24 51°10.269 2°37.55 -999 -999 -999 -999
2007-11-08 15:31:24 51°10.26 2°37.668 -999 -999 -999 -999
2007-11-08 15:32:24 51°10.291 2°37.791 -999 -999 -999 -999
2007-11-08 15:33:24 51°10.359 2°37.881 -999 -999 -999 -999
2007-11-08 15:34:24 51°10.43 2°37.972 -999 -999 -999 -999
2007-11-08 15:35:24 51°10.496 2°38.073 -999 -999 -999 -999
2007-11-08 15:36:24 51°10.555 2°38.184 -999 -999 -999 -999
2007-11-08 15:37:24 51°10.604 2°38.314 -999 -999 -999 -999
2007-11-08 15:38:24 51°10.652 2°38.438 -999 -999 -999 -999
2007-11-08 15:39:24 51°10.703 2°38.552 -999 -999 -999 -999
2007-11-08 15:40:24 51°10.752 2°38.665 -999 -999 -999 -999
2007-11-08 15:41:24 51°10.793 2°38.783 -999 -999 -999 -999
2007-11-08 15:42:24 51°10.823 2°38.907 -999 -999 -999 -999
2007-11-08 15:43:24 51°10.858 2°39.032 -999 -999 -999 -999
2007-11-08 15:44:24 51°10.896 2°39.155 -999 -999 -999 -999
2007-11-08 15:45:24 51°10.933 2°39.278 -999 -999 -999 -999
2007-11-08 15:46:24 51°10.97 2°39.399 -999 -999 -999 -999
2007-11-08 15:47:24 51°11.007 2°39.519 -999 -999 -999 -999
2007-11-08 15:48:24 51°11.045 2°39.636 -999 -999 -999 -999
2007-11-08 15:49:24 51°11.083 2°39.754 -999 -999 -999 -999
2007-11-08 15:50:24 51°11.114 2°39.874 -999 -999 -999 -999
2007-11-08 15:51:24 51°11.139 2°39.998 -999 -999 -999 -999
2007-11-08 15:52:24 51°11.17 2°40.121 -999 -999 -999 -999
2007-11-08 15:53:24 51°11.209 2°40.237 -999 -999 -999 -999
2007-11-08 15:54:24 51°11.252 2°40.348 -999 -999 -999 -999
2007-11-08 15:55:24 51°11.295 2°40.458 -999 -999 -999 -999
2007-11-08 15:56:24 51°11.338 2°40.569 -999 -999 -999 -999
2007-11-08 15:57:24 51°11.383 2°40.678 -999 -999 -999 -999
2007-11-08 15:58:24 51°11.427 2°40.788 -999 -999 -999 -999
2007-11-08 15:59:24 51°11.465 2°40.899 -999 -999 -999 -999
2007-11-08 16:00:24 51°11.507 2°41.01 -999 -999 -999 -999
2007-11-08 16:01:24 51°11.549 2°41.125 -999 -999 -999 -999
2007-11-08 16:02:24 51°11.591 2°41.24 -999 -999 -999 -999
2007-11-08 16:03:24 51°11.635 2°41.353 -999 -999 -999 -999
2007-11-08 16:04:24 51°11.678 2°41.464 -999 -999 -999 -999
2007-11-08 16:05:24 51°11.722 2°41.578 -999 -999 -999 -999
2007-11-08 16:06:24 51°11.765 2°41.692 -999 -999 -999 -999
2007-11-08 16:07:24 51°11.807 2°41.806 -999 -999 -999 -999
2007-11-08 16:08:24 51°11.851 2°41.916 -999 -999 -999 -999
2007-11-08 16:09:24 51°11.897 2°42.023 -999 -999 -999 -999
2007-11-08 16:10:24 51°11.942 2°42.129 -999 -999 -999 -999
2007-11-08 16:11:24 51°11.989 2°42.234 -999 -999 -999 -999
2007-11-08 16:12:24 51°12.038 2°42.339 -999 -999 -999 -999
2007-11-08 16:13:24 51°12.119 2°42.499 -999 -999 -999 -999
2007-11-08 16:14:24 51°12.235 2°42.735 -999 -999 -999 -999
2007-11-08 16:15:24 51°12.347 2°42.997 -999 -999 -999 -999
2007-11-08 16:16:24 51°12.458 2°43.26 -999 -999 -999 -999
2007-11-08 16:17:24 51°12.565 2°43.528 -999 -999 -999 -999
2007-11-08 16:18:24 51°12.669 2°43.798 -999 -999 -999 -999
2007-11-08 16:19:24 51°12.773 2°44.065 -999 -999 -999 -999
2007-11-08 16:20:24 51°12.881 2°44.331 -999 -999 -999 -999
2007-11-08 16:21:24 51°12.995 2°44.586 -999 -999 -999 -999
2007-11-08 16:22:24 51°13.116 2°44.834 -999 -999 -999 -999
2007-11-08 16:23:24 51°13.238 2°45.08 -999 -999 -999 -999
2007-11-08 16:24:24 51°13.362 2°45.327 -999 -999 -999 -999
2007-11-08 16:25:24 51°13.492 2°45.563 -999 -999 -999 -999
2007-11-08 16:26:24 51°13.646 2°45.76 -999 -999 -999 -999
2007-11-08 16:27:24 51°13.808 2°45.936 -999 -999 -999 -999
2007-11-08 16:28:24 51°13.974 2°46.106 -999 -999 -999 -999
2007-11-08 16:29:24 51°14.133 2°46.294 -999 -999 -999 -999
2007-11-08 16:30:24 51°14.206 2°46.578 -999 -999 -999 -999
2007-11-08 16:31:24 51°14.231 2°46.889 -999 -999 -999 -999
2007-11-08 16:32:24 51°14.264 2°47.198 -999 -999 -999 -999
2007-11-08 16:33:24 51°14.307 2°47.507 -999 -999 -999 -999
2007-11-08 16:34:24 51°14.356 2°47.807 -999 -999 -999 -999
2007-11-08 16:35:24 51°14.4 2°48.113 -999 -999 -999 -999
2007-11-08 16:36:24 51°14.447 2°48.417 -999 -999 -999 -999
2007-11-08 16:37:24 51°14.492 2°48.722 -999 -999 -999 -999
2007-11-08 16:38:24 51°14.537 2°49.022 -999 -999 -999 -999
2007-11-08 16:39:24 51°14.585 2°49.326 -999 -999 -999 -999
2007-11-08 16:40:24 51°14.634 2°49.629 -999 -999 -999 -999
2007-11-08 16:41:24 51°14.682 2°49.931 -999 -999 -999 -999
2007-11-08 16:42:25 51°14.729 2°50.237 -999 -999 -999 -999
2007-11-08 16:43:24 51°14.778 2°50.534 -999 -999 -999 -999
2007-11-08 16:44:24 51°14.803 2°50.841 -999 -999 -999 -999
2007-11-08 16:45:24 51°14.829 2°51.153 -999 -999 -999 -999
2007-11-08 16:46:24 51°14.854 2°51.462 -999 -999 -999 -999
2007-11-08 16:47:24 51°14.87 2°51.774 -999 -999 -999 -999
2007-11-08 16:48:24 51°14.866 2°52.084 -999 -999 -999 -999
2007-11-08 16:49:24 51°14.841 2°52.398 -999 -999 -999 -999
2007-11-08 16:50:24 51°14.813 2°52.715 -999 -999 -999 -999
2007-11-08 16:51:24 51°14.782 2°53.027 -999 -999 -999 -999
2007-11-08 16:52:24 51°14.738 2°53.339 -999 -999 -999 -999
2007-11-08 16:53:24 51°14.696 2°53.649 -999 -999 -999 -999
2007-11-08 16:54:24 51°14.648 2°53.946 -999 -999 -999 -999
2007-11-08 16:55:24 51°14.588 2°54.241 -999 -999 -999 -999
2007-11-08 16:56:24 51°14.521 2°54.542 -999 -999 -999 -999
2007-11-08 16:57:24 51°14.439 2°54.835 -999 -999 -999 -999
2007-11-08 16:58:24 51°14.338 2°55.105 -999 -999 -999 -999
2007-11-08 16:59:24 51°14.21 2°55.338 -999 -999 -999 -999
2007-11-08 17:00:27 51°14.063 2°55.463 -999 -999 -999 -999
2007-11-08 17:01:28 51°13.942 2°55.547 -999 -999 -999 -999
2007-11-08 17:02:28 51°13.817 2°55.641 -999 -999 -999 -999
2007-11-08 17:03:28 51°13.738 2°55.74 -999 -999 -999 -999
2007-11-08 17:04:28 51°13.689 2°55.838 -999 -999 -999 -999
2007-11-08 17:05:28 51°13.669 2°55.918 -999 -999 -999 -999
2007-11-08 17:06:28 51°13.664 2°55.952 -999 -999 -999 -999